| time (UTC) | temp F | wind direction | speed knots | gust knots | rain 1hr in | rain 24hr in | rain mn in | humidity % | barometer mb |
| 20260507095707 | 37 | 238 | 0.9 | 1.7 | 0.00 | 0.00 | 0.00 | 76 | 1011.8 |
| 20260507095428 | 37 | 238 | 0.9 | 1.7 | 0.00 | 0.00 | 0.00 | 75 | 1011.8 |
| 20260507094705 | 37 | 238 | 0.0 | 1.7 | 0.00 | 0.00 | 0.00 | 75 | 1011.9 |
| 20260507094205 | 37 | 238 | 0.0 | 1.7 | 0.00 | 0.00 | 0.00 | 75 | 1011.9 |
| 20260507094142 | 37 | 238 | 0.9 | 1.7 | 0.00 | 0.00 | 0.00 | 75 | 1011.9 |
| 20260507093158 | 37 | 238 | 0.9 | 1.7 | 0.00 | 0.00 | 0.00 | 74 | 1011.9 |
| 20260507092655 | 38 | 238 | 0.9 | 3.5 | 0.00 | 0.00 | 0.00 | 74 | 1011.9 |
| 20260507092154 | 38 | 238 | 0.9 | 3.5 | 0.00 | 0.00 | 0.00 | 74 | 1011.9 |
| 20260507091657 | 38 | 279 | 0.9 | 2.6 | 0.00 | 0.00 | 0.00 | 74 | 1011.9 |
| 20260507091415 | 38 | 279 | 0.9 | 1.7 | 0.00 | 0.00 | 0.00 | 74 | 1011.9 |
| 20260507090654 | 38 | 279 | 0.9 | 1.7 | 0.00 | 0.00 | 0.00 | 74 | 1011.9 |
| 20260507090155 | 38 | 279 | 0.0 | 0.9 | 0.00 | 0.00 | 0.00 | 74 | 1011.9 |
| 20260507085915 | 38 | 279 | 0.0 | 0.9 | 0.00 | 0.00 | 0.00 | 74 | 1011.9 |
| 20260507085153 | 38 | 279 | 0.0 | 0.0 | 0.00 | 0.00 | 0.00 | 73 | 1011.9 |
| 20260507084653 | 38 | 279 | 0.0 | 0.9 | 0.00 | 0.00 | 0.00 | 73 | 1011.9 |
| 20260507084150 | 38 | 279 | 0.0 | 1.7 | 0.00 | 0.00 | 0.00 | 73 | 1011.9 |
| 20260507083859 | 38 | 279 | 0.9 | 2.6 | 0.00 | 0.00 | 0.00 | 73 | 1011.9 |
| 20260507083140 | 38 | 279 | 0.9 | 2.6 | 0.00 | 0.00 | 0.00 | 73 | 1011.9 |
| 20260507082634 | 38 | 279 | 0.9 | 1.7 | 0.00 | 0.00 | 0.00 | 73 | 1011.9 |
| 20260507082123 | 38 | 279 | 0.0 | 1.7 | 0.00 | 0.00 | 0.00 | 73 | 1011.9 |
| 20260507081620 | 38 | 279 | 0.0 | 1.7 | 0.00 | 0.00 | 0.00 | 72 | 1011.9 |
| 20260507081115 | 38 | 279 | 0.0 | 0.0 | 0.00 | 0.00 | 0.00 | 72 | 1011.9 |
| 20260507080834 | 39 | 279 | 0.0 | 0.0 | 0.00 | 0.00 | 0.00 | 72 | 1011.9 |
| 20260507080317 | 39 | 279 | 0.0 | 0.0 | 0.00 | 0.00 | 0.00 | 72 | 1011.9 |
| 20260507075558 | 39 | 279 | 0.0 | 0.0 | 0.00 | 0.00 | 0.00 | 72 | 1011.9 |
| 20260507075313 | 39 | 279 | 0.0 | 0.0 | 0.00 | 0.00 | 0.00 | 72 | 1011.9 |
| 20260507075019 | 39 | 279 | 0.0 | 0.0 | 0.00 | 0.00 | 0.00 | 71 | 1011.8 |
| 20260507074040 | 39 | 279 | 0.0 | 0.9 | 0.00 | 0.00 | 0.00 | 71 | 1011.8 |
| 20260507073532 | 39 | 279 | 0.0 | 0.9 | 0.00 | 0.00 | 0.00 | 71 | 1011.8 |
| 20260507073026 | 39 | 279 | 0.0 | 0.9 | 0.00 | 0.00 | 0.00 | 71 | 1011.9 |
| 20260507072521 | 39 | 279 | 0.0 | 0.9 | 0.00 | 0.00 | 0.00 | 71 | 1011.9 |
| 20260507072232 | 39 | 279 | 0.0 | 1.7 | 0.00 | 0.00 | 0.00 | 71 | 1011.9 |
| 20260507071509 | 39 | 279 | 0.9 | 1.7 | 0.00 | 0.00 | 0.00 | 71 | 1011.9 |
| 20260507071003 | 39 | 279 | 0.9 | 1.7 | 0.00 | 0.00 | 0.00 | 71 | 1011.9 |
| 20260507070456 | 39 | 279 | 0.9 | 1.7 | 0.00 | 0.00 | 0.00 | 71 | 1011.9 |
| 20260507065951 | 39 | 279 | 0.9 | 1.7 | 0.00 | 0.00 | 0.00 | 71 | 1011.9 |
| 20260507065441 | 39 | 279 | 0.0 | 1.7 | 0.00 | 0.00 | 0.00 | 71 | 1011.9 |
| 20260507064939 | 39 | 279 | 0.0 | 1.7 | 0.00 | 0.00 | 0.00 | 71 | 1012.0 |
| 20260507064434 | 39 | 279 | 0.0 | 1.7 | 0.00 | 0.00 | 0.00 | 70 | 1012.0 |
| 20260507063926 | 39 | 279 | 0.0 | 1.7 | 0.00 | 0.00 | 0.00 | 71 | 1012.0 |
| 20260507063422 | 39 | 279 | 0.0 | 0.9 | 0.00 | 0.00 | 0.00 | 71 | 1012.1 |
| 20260507062909 | 39 | 279 | 0.0 | 0.9 | 0.00 | 0.00 | 0.00 | 70 | 1012.1 |
| 20260507062409 | 39 | 279 | 0.0 | 0.9 | 0.00 | 0.00 | 0.00 | 70 | 1012.1 |
| 20260507061907 | 40 | 279 | 0.0 | 0.0 | 0.00 | 0.00 | 0.00 | 70 | 1012.1 |
| 20260507061405 | 40 | 279 | 0.0 | 0.0 | 0.00 | 0.00 | 0.00 | 69 | 1012.1 |
| 20260507060904 | 40 | 279 | 0.0 | 0.0 | 0.00 | 0.00 | 0.00 | 68 | 1012.1 |
| 20260507060402 | 40 | 279 | 0.0 | 0.0 | 0.00 | 0.00 | 0.00 | 68 | 1012.2 |
| 20260507060126 | 40 | 279 | 0.0 | 0.0 | 0.00 | 0.00 | 0.00 | 68 | 1012.2 |
| 20260507055359 | 40 | 279 | 0.0 | 0.0 | 0.00 | 0.00 | 0.00 | 67 | 1012.2 |
| 20260507054857 | 40 | 279 | 0.0 | 0.0 | 0.00 | 0.00 | 0.00 | 66 | 1012.2 |
| 20260507054354 | 40 | 279 | 0.0 | 0.0 | 0.00 | 0.00 | 0.00 | 66 | 1012.2 |
| 20260507054118 | 41 | 279 | 0.0 | 0.9 | 0.00 | 0.00 | 0.00 | 66 | 1012.2 |
| 20260507053350 | 41 | 279 | 0.0 | 0.9 | 0.00 | 0.00 | 0.00 | 66 | 1012.3 |
| 20260507053111 | 41 | 279 | 0.0 | 0.9 | 0.00 | 0.00 | 0.00 | 66 | 1012.3 |
| 20260507052351 | 41 | 279 | 0.0 | 0.9 | 0.00 | 0.00 | 0.00 | 65 | 1012.3 |
| 20260507051849 | 41 | 279 | 0.0 | 1.7 | 0.00 | 0.00 | 0.00 | 65 | 1012.3 |
| 20260507051352 | 41 | 279 | 0.0 | 1.7 | 0.00 | 0.00 | 0.00 | 66 | 1012.3 |
| 20260507050854 | 41 | 281 | 0.0 | 0.9 | 0.00 | 0.00 | 0.00 | 65 | 1012.3 |
| 20260507050350 | 41 | 281 | 0.0 | 1.7 | 0.00 | 0.00 | 0.00 | 64 | 1012.3 |
| 20260507050330 | 41 | 281 | 0.0 | 1.7 | 0.00 | 0.00 | 0.00 | 64 | 1012.3 |
| 20260507045339 | 41 | 281 | 0.0 | 1.7 | 0.00 | 0.00 | 0.00 | 65 | 1012.3 |
| 20260507044833 | 42 | 281 | 0.0 | 1.7 | 0.00 | 0.00 | 0.00 | 64 | 1012.3 |
| 20260507044321 | 42 | 281 | 0.0 | 0.0 | 0.00 | 0.00 | 0.00 | 64 | 1012.3 |
| 20260507043822 | 42 | 281 | 0.0 | 0.0 | 0.00 | 0.00 | 0.00 | 64 | 1012.3 |
| 20260507043316 | 42 | 281 | 0.0 | 1.7 | 0.00 | 0.00 | 0.00 | 64 | 1012.1 |
| 20260507042808 | 42 | 281 | 0.0 | 1.7 | 0.00 | 0.00 | 0.00 | 63 | 1012.1 |
| 20260507042306 | 42 | 281 | 0.0 | 0.9 | 0.00 | 0.00 | 0.00 | 62 | 1012.1 |
| 20260507041754 | 42 | 281 | 0.0 | 1.7 | 0.00 | 0.00 | 0.00 | 62 | 1012.2 |
| 20260507041247 | 42 | 281 | 0.0 | 1.7 | 0.00 | 0.00 | 0.00 | 62 | 1012.2 |
| 20260507040736 | 43 | 281 | 0.0 | 0.0 | 0.00 | 0.00 | 0.00 | 62 | 1012.2 |
| 20260507040222 | 43 | 281 | 0.0 | 0.0 | 0.00 | 0.00 | 0.00 | 61 | 1012.2 |
| 20260507035944 | 43 | 281 | 0.0 | 0.0 | 0.00 | 0.00 | 0.00 | 61 | 1012.2 |
| 20260507035222 | 43 | 281 | 0.0 | 0.0 | 0.00 | 0.00 | 0.00 | 61 | 1012.2 |
| 20260507034723 | 43 | 281 | 0.0 | 0.0 | 0.00 | 0.00 | 0.00 | 60 | 1012.3 |
| 20260507034222 | 44 | 281 | 0.0 | 0.0 | 0.00 | 0.00 | 0.00 | 60 | 1012.3 |
| 20260507033722 | 44 | 281 | 0.0 | 0.0 | 0.00 | 0.00 | 0.00 | 59 | 1012.3 |
| 20260507033224 | 44 | 281 | 0.0 | 0.0 | 0.00 | 0.00 | 0.00 | 59 | 1012.3 |
| 20260507032725 | 44 | 281 | 0.0 | 0.0 | 0.00 | 0.00 | 0.00 | 58 | 1012.3 |
| 20260507032221 | 45 | 281 | 0.0 | 1.7 | 0.00 | 0.00 | 0.00 | 58 | 1012.3 |
| 20260507031720 | 45 | 281 | 0.0 | 1.7 | 0.00 | 0.00 | 0.00 | 57 | 1012.2 |
| 20260507031215 | 45 | 281 | 0.0 | 1.7 | 0.00 | 0.00 | 0.00 | 55 | 1012.2 |
| 20260507030708 | 45 | 281 | 0.0 | 1.7 | 0.00 | 0.00 | 0.00 | 55 | 1012.2 |
| 20260507030202 | 46 | 281 | 0.0 | 2.6 | 0.00 | 0.00 | 0.00 | 55 | 1012.1 |
| 20260507025653 | 46 | 281 | 0.9 | 2.6 | 0.00 | 0.00 | 0.00 | 54 | 1012.1 |
| 20260507025145 | 46 | 267 | 0.9 | 2.6 | 0.00 | 0.00 | 0.00 | 53 | 1012.1 |
| 20260507024645 | 46 | 263 | 0.9 | 2.6 | 0.00 | 0.00 | 0.00 | 53 | 1012.0 |
| 20260507024139 | 46 | 289 | 0.9 | 2.6 | 0.00 | 0.00 | 0.00 | 53 | 1012.0 |
| 20260507023631 | 47 | 288 | 1.7 | 4.3 | 0.00 | 0.00 | 0.00 | 53 | 1012.0 |
| 20260507023126 | 47 | 309 | 1.7 | 4.3 | 0.00 | 0.00 | 0.00 | 52 | 1011.9 |
| 20260507023109 | 47 | 281 | 1.7 | 4.3 | 0.00 | 0.00 | 0.00 | 51 | 1011.9 |
| 20260507022109 | 47 | 292 | 1.7 | 5.2 | 0.00 | 0.00 | 0.00 | 52 | 1011.9 |
| 20260507021831 | 47 | 317 | 1.7 | 5.2 | 0.00 | 0.00 | 0.00 | 52 | 1011.6 |
| 20260507021103 | 47 | 36 | 1.7 | 4.3 | 0.00 | 0.00 | 0.00 | 52 | 1011.6 |
| 20260507020558 | 48 | 277 | 1.7 | 4.3 | 0.00 | 0.00 | 0.00 | 51 | 1011.6 |
| 20260507020046 | 48 | 325 | 1.7 | 5.2 | 0.00 | 0.00 | 0.00 | 51 | 1011.4 |
| 20260507015541 | 48 | 263 | 1.7 | 5.2 | 0.00 | 0.00 | 0.00 | 51 | 1011.4 |
| 20260507015040 | 48 | 325 | 1.7 | 5.2 | 0.00 | 0.00 | 0.00 | 51 | 1011.4 |
| 20260507014532 | 48 | 286 | 1.7 | 5.2 | 0.00 | 0.00 | 0.00 | 49 | 1011.2 |
| 20260507014025 | 49 | 293 | 2.6 | 5.2 | 0.00 | 0.00 | 0.00 | 50 | 1011.2 |
| 20260507013522 | 49 | 343 | 2.6 | 6.1 | 0.00 | 0.00 | 0.00 | 49 | 1011.2 |
| 20260507013010 | 49 | 309 | 3.5 | 7.8 | 0.00 | 0.00 | 0.00 | 49 | 1011.2 |
| 20260507012509 | 49 | 292 | 3.5 | 8.7 | 0.00 | 0.00 | 0.00 | 48 | 1011.2 |
| 20260507011958 | 49 | 246 | 3.5 | 10.4 | 0.00 | 0.00 | 0.00 | 49 | 1011.2 |
| 20260507011455 | 50 | 272 | 3.5 | 10.4 | 0.00 | 0.00 | 0.00 | 49 | 1011.1 |
| 20260507010946 | 50 | 233 | 3.5 | 8.7 | 0.00 | 0.00 | 0.00 | 49 | 1011.1 |
| 20260507010444 | 50 | 291 | 2.6 | 8.7 | 0.00 | 0.00 | 0.00 | 48 | 1010.9 |
| 20260507005940 | 50 | 5 | 2.6 | 6.1 | 0.00 | 0.00 | 0.00 | 48 | 1010.9 |
| 20260507005428 | 50 | 324 | 1.7 | 6.1 | 0.00 | 0.00 | 0.00 | 48 | 1010.9 |
| 20260507004926 | 51 | 30 | 2.6 | 8.7 | 0.00 | 0.00 | 0.00 | 48 | 1010.9 |
| 20260507004637 | 51 | 341 | 4.3 | 11.3 | 0.00 | 0.00 | 0.00 | 47 | 1010.9 |
| 20260507003913 | 51 | 286 | 5.2 | 12.2 | 0.00 | 0.00 | 0.00 | 46 | 1010.9 |
| 20260507003408 | 52 | 342 | 4.3 | 12.2 | 0.00 | 0.00 | 0.00 | 45 | 1010.8 |
| 20260507002859 | 52 | 286 | 4.3 | 12.2 | 0.00 | 0.00 | 0.00 | 46 | 1010.8 |
| 20260507002356 | 52 | 217 | 5.2 | 13.9 | 0.00 | 0.00 | 0.00 | 45 | 1010.8 |
| 20260507002121 | 52 | 285 | 6.1 | 13.9 | 0.00 | 0.00 | 0.00 | 45 | 1010.5 |
| 20260507001601 | 53 | 327 | 5.2 | 12.2 | 0.00 | 0.00 | 0.00 | 45 | 1010.5 |
| 20260507000838 | 53 | 324 | 4.3 | 13.0 | 0.00 | 0.00 | 0.00 | 45 | 1010.5 |
| 20260507000330 | 53 | 309 | 4.3 | 13.0 | 0.00 | 0.00 | 0.00 | 45 | 1010.3 |
| 20260506235819 | 53 | 295 | 4.3 | 12.2 | 0.00 | 0.00 | 0.00 | 44 | 1010.3 |
| 20260506235310 | 53 | 314 | 5.2 | 12.2 | 0.00 | 0.00 | 0.00 | 45 | 1010.3 |
| 20260506234808 | 53 | 250 | 6.1 | 13.0 | 0.00 | 0.00 | 0.00 | 44 | 1010.2 |
| 20260506234309 | 53 | 241 | 5.2 | 13.0 | 0.00 | 0.00 | 0.00 | 44 | 1010.2 |
| 20260506233809 | 53 | 267 | 5.2 | 18.2 | 0.00 | 0.00 | 0.00 | 45 | 1010.2 |
| 20260506233529 | 53 | 250 | 5.2 | 18.2 | 0.00 | 0.00 | 0.00 | 43 | 1010.2 |
| 20260506232809 | 54 | 300 | 4.3 | 11.3 | 0.00 | 0.00 | 0.00 | 43 | 1010.2 |
| 20260506232308 | 54 | 292 | 4.3 | 10.4 | 0.00 | 0.00 | 0.00 | 43 | 1010.2 |
| 20260506231811 | 54 | 315 | 4.3 | 10.4 | 0.00 | 0.00 | 0.00 | 43 | 1010.1 |
| 20260506231313 | 54 | 308 | 5.2 | 12.2 | 0.00 | 0.00 | 0.00 | 43 | 1010.1 |
| 20260506230809 | 54 | 215 | 5.2 | 12.2 | 0.00 | 0.00 | 0.00 | 43 | 1010.1 |
| 20260506230258 | 54 | 269 | 3.5 | 10.4 | 0.00 | 0.00 | 0.00 | 42 | 1009.8 |
| 20260506225755 | 55 | 225 | 4.3 | 11.3 | 0.00 | 0.00 | 0.00 | 42 | 1009.8 |
| 20260506225249 | 55 | 292 | 4.3 | 11.3 | 0.00 | 0.00 | 0.00 | 42 | 1009.8 |
| 20260506224736 | 55 | 325 | 4.3 | 11.3 | 0.00 | 0.00 | 0.00 | 42 | 1009.9 |
| 20260506224235 | 55 | 214 | 4.3 | 10.4 | 0.00 | 0.00 | 0.00 | 42 | 1009.9 |
| 20260506223731 | 55 | 274 | 5.2 | 10.4 | 0.00 | 0.00 | 0.00 | 43 | 1009.9 |
| 20260506223225 | 55 | 246 | 6.1 | 13.9 | 0.00 | 0.00 | 0.00 | 42 | 1009.8 |
| 20260506222718 | 55 | 284 | 5.2 | 12.2 | 0.00 | 0.00 | 0.00 | 41 | 1009.8 |
| 20260506222212 | 56 | 250 | 5.2 | 12.2 | 0.00 | 0.00 | 0.00 | 43 | 1009.8 |
| 20260506221707 | 55 | 283 | 5.2 | 12.2 | 0.00 | 0.00 | 0.00 | 42 | 1009.8 |
| 20260506221429 | 55 | 298 | 4.3 | 10.4 | 0.00 | 0.00 | 0.00 | 42 | 1009.8 |
| 20260506220654 | 55 | 49 | 4.3 | 13.0 | 0.00 | 0.00 | 0.00 | 41 | 1009.8 |
| 20260506220149 | 55 | 233 | 5.2 | 13.0 | 0.00 | 0.00 | 0.00 | 41 | 1009.8 |
| 20260506215642 | 56 | 263 | 6.1 | 11.3 | 0.00 | 0.00 | 0.00 | 41 | 1009.8 |
| 20260506215136 | 56 | 267 | 7.0 | 13.0 | 0.00 | 0.00 | 0.00 | 41 | 1009.8 |
| 20260506214847 | 56 | 304 | 6.1 | 13.0 | 0.00 | 0.00 | 0.00 | 41 | 1009.7 |
| 20260506214123 | 56 | 228 | 5.2 | 11.3 | 0.00 | 0.00 | 0.00 | 41 | 1009.7 |
| 20260506213617 | 56 | 320 | 6.1 | 21.7 | 0.00 | 0.00 | 0.00 | 42 | 1009.7 |
| 20260506213111 | 56 | 269 | 7.8 | 21.7 | 0.00 | 0.00 | 0.00 | 40 | 1009.7 |
| 20260506212605 | 56 | 246 | 7.0 | 14.8 | 0.00 | 0.00 | 0.00 | 40 | 1009.7 |
| 20260506212059 | 56 | 247 | 7.0 | 13.9 | 0.00 | 0.00 | 0.00 | 39 | 1009.7 |
| 20260506211553 | 56 | 284 | 6.1 | 13.0 | 0.00 | 0.00 | 0.00 | 41 | 1009.7 |
| 20260506211043 | 57 | 290 | 6.1 | 14.8 | 0.00 | 0.00 | 0.00 | 40 | 1009.7 |
| 20260506210541 | 56 | 263 | 6.1 | 14.8 | 0.00 | 0.00 | 0.00 | 41 | 1009.7 |
| 20260506210040 | 56 | 267 | 6.1 | 13.9 | 0.00 | 0.00 | 0.00 | 41 | 1009.8 |
| 20260506205540 | 56 | 271 | 6.1 | 13.9 | 0.00 | 0.00 | 0.00 | 41 | 1009.8 |
| 20260506205040 | 56 | 237 | 5.2 | 13.0 | 0.00 | 0.00 | 0.00 | 40 | 1009.8 |
| 20260506204540 | 56 | 291 | 6.1 | 13.0 | 0.00 | 0.00 | 0.00 | 43 | 1009.8 |
| 20260506204310 | 56 | 289 | 6.1 | 12.2 | 0.00 | 0.00 | 0.00 | 42 | 1009.8 |
| 20260506203540 | 56 | 263 | 5.2 | 12.2 | 0.00 | 0.00 | 0.00 | 40 | 1009.8 |
| 20260506203041 | 56 | 238 | 5.2 | 12.2 | 0.00 | 0.00 | 0.00 | 41 | 1009.9 |
| 20260506202801 | 56 | 248 | 4.3 | 11.3 | 0.00 | 0.00 | 0.00 | 42 | 1009.9 |
| 20260506202043 | 55 | 221 | 4.3 | 12.2 | 0.00 | 0.00 | 0.00 | 44 | 1009.9 |
| 20260506201544 | 55 | 278 | 5.2 | 13.0 | 0.00 | 0.00 | 0.00 | 42 | 1010.2 |
| 20260506201040 | 55 | 244 | 5.2 | 13.0 | 0.00 | 0.00 | 0.00 | 44 | 1010.2 |
| 20260506200540 | 56 | 271 | 5.2 | 12.2 | 0.00 | 0.00 | 0.00 | 45 | 1010.2 |
| 20260506200040 | 55 | 259 | 5.2 | 12.2 | 0.00 | 0.00 | 0.00 | 44 | 1010.3 |
| 20260506195539 | 55 | 286 | 5.2 | 14.8 | 0.00 | 0.00 | 0.00 | 44 | 1010.3 |
| 20260506195039 | 55 | 219 | 5.2 | 14.8 | 0.00 | 0.00 | 0.00 | 44 | 1010.3 |
| 20260506194802 | 55 | 160 | 5.2 | 11.3 | 0.00 | 0.00 | 0.00 | 44 | 1010.3 |
| 20260506194022 | 55 | 311 | 5.2 | 11.3 | 0.00 | 0.00 | 0.00 | 45 | 1010.3 |
| 20260506193511 | 55 | 254 | 6.1 | 12.2 | 0.00 | 0.00 | 0.00 | 44 | 1010.3 |
| 20260506193012 | 55 | 227 | 6.1 | 16.5 | 0.00 | 0.00 | 0.00 | 45 | 1010.3 |
| 20260506192512 | 55 | 252 | 5.2 | 16.5 | 0.00 | 0.00 | 0.00 | 45 | 1010.3 |
| 20260506192012 | 54 | 264 | 4.3 | 9.6 | 0.00 | 0.00 | 0.00 | 48 | 1010.3 |
| 20260506191512 | 54 | 254 | 5.2 | 9.6 | 0.00 | 0.00 | 0.00 | 48 | 1010.5 |
| 20260506191011 | 54 | 217 | 5.2 | 12.2 | 0.00 | 0.00 | 0.00 | 49 | 1010.5 |
| 20260506190732 | 54 | 265 | 4.3 | 12.2 | 0.00 | 0.00 | 0.00 | 47 | 1010.5 |
| 20260506190016 | 54 | 315 | 5.2 | 12.2 | 0.00 | 0.00 | 0.00 | 48 | 1010.5 |
| 20260506185511 | 54 | 246 | 5.2 | 12.2 | 0.00 | 0.00 | 0.00 | 46 | 1010.5 |
| 20260506185500 | 54 | 235 | 3.5 | 8.7 | 0.00 | 0.00 | 0.00 | 48 | 1010.5 |
| 20260506184504 | 54 | 287 | 4.3 | 11.3 | 0.00 | 0.00 | 0.00 | 48 | 1010.3 |
| 20260506183958 | 54 | 227 | 5.2 | 11.3 | 0.00 | 0.00 | 0.00 | 46 | 1010.3 |
| 20260506183452 | 53 | 226 | 6.1 | 11.3 | 0.00 | 0.00 | 0.00 | 46 | 1010.3 |
| 20260506182941 | 54 | 234 | 5.2 | 11.3 | 0.00 | 0.00 | 0.00 | 46 | 1010.3 |
| 20260506182440 | 54 | 285 | 4.3 | 14.8 | 0.00 | 0.00 | 0.00 | 47 | 1010.3 |
| 20260506181934 | 55 | 266 | 4.3 | 14.8 | 0.00 | 0.00 | 0.00 | 47 | 1010.4 |
| 20260506181428 | 54 | 213 | 5.2 | 9.6 | 0.00 | 0.00 | 0.00 | 45 | 1010.4 |
| 20260506181141 | 55 | 236 | 4.3 | 9.6 | 0.00 | 0.00 | 0.00 | 44 | 1010.4 |
| 20260506180641 | 55 | 254 | 3.5 | 10.4 | 0.00 | 0.00 | 0.00 | 45 | 1010.5 |
| 20260506180353 | 55 | 333 | 3.5 | 10.4 | 0.00 | 0.00 | 0.00 | 43 | 1010.5 |
| 20260506175359 | 55 | 236 | 3.5 | 8.7 | 0.00 | 0.00 | 0.00 | 45 | 1010.5 |
| 20260506174858 | 54 | 273 | 4.3 | 10.4 | 0.00 | 0.00 | 0.00 | 43 | 1010.8 |
| 20260506174352 | 54 | 232 | 5.2 | 14.8 | 0.00 | 0.00 | 0.00 | 44 | 1010.8 |
| 20260506173846 | 54 | 263 | 5.2 | 14.8 | 0.00 | 0.00 | 0.00 | 44 | 1010.8 |
| 20260506173340 | 54 | 218 | 4.3 | 11.3 | 0.00 | 0.00 | 0.00 | 43 | 1010.8 |
| 20260506172829 | 54 | 282 | 4.3 | 10.4 | 0.00 | 0.00 | 0.00 | 43 | 1010.8 |
| 20260506172328 | 54 | 204 | 4.3 | 12.2 | 0.00 | 0.00 | 0.00 | 42 | 1010.8 |
| 20260506171823 | 54 | 286 | 4.3 | 12.2 | 0.00 | 0.00 | 0.00 | 41 | 1010.7 |
| 20260506171319 | 55 | 282 | 3.5 | 9.6 | 0.00 | 0.00 | 0.00 | 42 | 1010.7 |
| 20260506170811 | 54 | 258 | 3.5 | 8.7 | 0.00 | 0.00 | 0.00 | 45 | 1010.7 |
| 20260506170300 | 54 | 245 | 4.3 | 8.7 | 0.00 | 0.00 | 0.00 | 42 | 1010.4 |
| 20260506165759 | 54 | 236 | 4.3 | 13.0 | 0.00 | 0.00 | 0.00 | 42 | 1010.4 |
| 20260506165512 | 54 | 317 | 4.3 | 13.0 | 0.00 | 0.00 | 0.00 | 41 | 1010.4 |
| 20260506164745 | 54 | 300 | 4.3 | 8.7 | 0.00 | 0.00 | 0.00 | 43 | 1010.4 |
| 20260506164240 | 54 | 5 | 3.5 | 8.7 | 0.00 | 0.00 | 0.00 | 42 | 1010.4 |
| 20260506163729 | 54 | 338 | 3.5 | 8.7 | 0.00 | 0.00 | 0.00 | 43 | 1010.4 |
| 20260506163227 | 53 | 284 | 4.3 | 8.7 | 0.00 | 0.00 | 0.00 | 43 | 1010.3 |
| 20260506162950 | 54 | 205 | 4.3 | 8.7 | 0.00 | 0.00 | 0.00 | 42 | 1010.3 |
| 20260506162216 | 54 | 316 | 4.3 | 8.7 | 0.00 | 0.00 | 0.00 | 42 | 1010.3 |
| 20260506161710 | 54 | 338 | 4.3 | 8.7 | 0.00 | 0.00 | 0.00 | 44 | 1010.3 |
| 20260506161204 | 54 | 279 | 3.5 | 7.0 | 0.00 | 0.00 | 0.00 | 44 | 1010.3 |
| 20260506160659 | 53 | 241 | 3.5 | 7.8 | 0.00 | 0.00 | 0.00 | 44 | 1010.3 |
| 20260506160420 | 53 | 281 | 4.3 | 7.8 | 0.00 | 0.00 | 0.00 | 43 | 1010.3 |
| 20260506155917 | 53 | 261 | 3.5 | 7.8 | 0.00 | 0.00 | 0.00 | 44 | 1010.3 |
| 20260506155156 | 53 | 271 | 3.5 | 7.0 | 0.00 | 0.00 | 0.00 | 44 | 1010.3 |
| 20260506154657 | 53 | 11 | 3.5 | 7.0 | 0.00 | 0.00 | 0.00 | 45 | 1010.3 |
| 20260506154157 | 53 | 220 | 3.5 | 6.1 | 0.00 | 0.00 | 0.00 | 47 | 1010.3 |
| 20260506153657 | 53 | 209 | 2.6 | 7.0 | 0.00 | 0.00 | 0.00 | 47 | 1010.3 |
| 20260506153157 | 53 | 256 | 2.6 | 7.0 | 0.00 | 0.00 | 0.00 | 47 | 1010.3 |
| 20260506152921 | 53 | 263 | 2.6 | 6.1 | 0.00 | 0.00 | 0.00 | 47 | 1010.3 |
| 20260506152156 | 53 | 355 | 2.6 | 6.1 | 0.00 | 0.00 | 0.00 | 49 | 1010.3 |
| 20260506151656 | 52 | 265 | 2.6 | 7.0 | 0.00 | 0.00 | 0.00 | 48 | 1010.7 |
| 20260506151158 | 52 | 243 | 3.5 | 7.0 | 0.00 | 0.00 | 0.00 | 49 | 1010.7 |
| 20260506150652 | 52 | 243 | 2.6 | 7.0 | 0.00 | 0.00 | 0.00 | 48 | 1010.7 |
| 20260506150138 | 52 | 265 | 1.7 | 6.1 | 0.00 | 0.00 | 0.00 | 49 | 1010.5 |
| 20260506145627 | 52 | 238 | 1.7 | 4.3 | 0.00 | 0.00 | 0.00 | 49 | 1010.5 |
| 20260506145116 | 51 | 233 | 0.9 | 4.3 | 0.00 | 0.00 | 0.00 | 50 | 1010.5 |
| 20260506144602 | 51 | 161 | 0.9 | 4.3 | 0.00 | 0.00 | 0.00 | 52 | 1010.7 |
| 20260506144051 | 51 | 253 | 1.7 | 5.2 | 0.00 | 0.00 | 0.00 | 52 | 1010.7 |
| 20260506144038 | 52 | 234 | 1.7 | 5.2 | 0.00 | 0.00 | 0.00 | 51 | 1010.7 |
| 20260506143037 | 52 | 211 | 0.0 | 2.6 | 0.00 | 0.00 | 0.00 | 52 | 1010.7 |
| 20260506142531 | 51 | 114 | 0.0 | 1.7 | 0.00 | 0.00 | 0.00 | 51 | 1010.7 |
| 20260506142025 | 51 | 114 | 0.9 | 1.7 | 0.00 | 0.00 | 0.00 | 53 | 1010.7 |
| 20260506141515 | 51 | 114 | 0.9 | 1.7 | 0.00 | 0.00 | 0.00 | 52 | 1010.5 |
| 20260506141013 | 50 | 83 | 0.0 | 1.7 | 0.00 | 0.00 | 0.00 | 54 | 1010.5 |
| 20260506140508 | 50 | 83 | 0.0 | 0.0 | 0.00 | 0.00 | 0.00 | 54 | 1010.5 |
| 20260506140001 | 49 | 35 | 0.0 | 0.0 | 0.00 | 0.00 | 0.00 | 56 | 1010.3 |
| 20260506135456 | 49 | 35 | 0.0 | 0.0 | 0.00 | 0.00 | 0.00 | 57 | 1010.3 |
| 20260506135208 | 49 | 35 | 0.0 | 0.0 | 0.00 | 0.00 | 0.00 | 57 | 1010.2 |
| 20260506134444 | 48 | 35 | 0.0 | 1.7 | 0.00 | 0.00 | 0.00 | 57 | 1010.2 |
| 20260506134150 | 48 | 36 | 0.9 | 1.7 | 0.00 | 0.00 | 0.00 | 60 | 1010.2 |
| 20260506133431 | 48 | 35 | 0.9 | 2.6 | 0.00 | 0.00 | 0.00 | 60 | 1009.8 |
| 20260506132924 | 48 | 35 | 0.9 | 2.6 | 0.00 | 0.00 | 0.00 | 60 | 1009.8 |
| 20260506132418 | 48 | 29 | 0.9 | 3.5 | 0.00 | 0.00 | 0.00 | 60 | 1009.8 |
| 20260506131912 | 47 | 26 | 0.9 | 3.5 | 0.00 | 0.00 | 0.00 | 61 | 1009.7 |
| 20260506131413 | 47 | 62 | 0.9 | 3.5 | 0.00 | 0.00 | 0.00 | 63 | 1009.7 |
| 20260506130912 | 47 | 22 | 0.9 | 3.5 | 0.00 | 0.00 | 0.00 | 63 | 1009.7 |
| 20260506130636 | 47 | 28 | 0.9 | 2.6 | 0.00 | 0.00 | 0.00 | 65 | 1009.6 |
| 20260506125910 | 47 | 5 | 0.0 | 1.7 | 0.00 | 0.00 | 0.00 | 66 | 1009.6 |
| 20260506125410 | 46 | 5 | 0.0 | 1.7 | 0.00 | 0.00 | 0.00 | 67 | 1009.6 |
| 20260506124910 | 46 | 5 | 0.9 | 2.6 | 0.00 | 0.00 | 0.00 | 69 | 1009.5 |
| 20260506124408 | 46 | 5 | 0.9 | 3.5 | 0.00 | 0.00 | 0.00 | 69 | 1009.5 |
| 20260506123909 | 45 | 5 | 0.9 | 3.5 | 0.00 | 0.00 | 0.00 | 70 | 1009.5 |
| 20260506123628 | 45 | 30 | 0.0 | 2.6 | 0.00 | 0.00 | 0.00 | 70 | 1009.2 |
| 20260506122908 | 45 | 30 | 0.0 | 1.7 | 0.00 | 0.00 | 0.00 | 71 | 1009.2 |
| 20260506122408 | 44 | 34 | 0.0 | 0.0 | 0.00 | 0.00 | 0.00 | 71 | 1009.2 |
| 20260506121906 | 44 | 34 | 0.0 | 0.9 | 0.00 | 0.00 | 0.00 | 71 | 1009.2 |
| 20260506121404 | 44 | 34 | 0.0 | 1.7 | 0.00 | 0.00 | 0.00 | 71 | 1009.2 |
| 20260506120902 | 44 | 34 | 0.0 | 1.7 | 0.00 | 0.00 | 0.00 | 71 | 1009.2 |
| 20260506120626 | 43 | 34 | 0.9 | 1.7 | 0.00 | 0.00 | 0.00 | 70 | 1009.1 |
| 20260506115901 | 43 | 34 | 0.9 | 2.6 | 0.00 | 0.00 | 0.00 | 70 | 1009.1 |
| 20260506115400 | 43 | 34 | 0.9 | 2.6 | 0.00 | 0.00 | 0.00 | 70 | 1009.1 |
| 20260506115123 | 43 | 55 | 0.0 | 0.9 | 0.00 | 0.00 | 0.00 | 70 | 1008.8 |
| 20260506114401 | 43 | 55 | 0.0 | 1.7 | 0.00 | 0.00 | 0.00 | 71 | 1008.8 |
| 20260506113857 | 43 | 55 | 0.0 | 1.7 | 0.00 | 0.00 | 0.00 | 70 | 1008.8 |
| 20260506113350 | 43 | 55 | 0.0 | 1.7 | 0.00 | 0.00 | 0.00 | 69 | 1008.6 |
| 20260506112842 | 43 | 55 | 0.0 | 1.7 | 0.00 | 0.00 | 0.00 | 69 | 1008.6 |
| 20260506112339 | 43 | 55 | 0.0 | 1.7 | 0.00 | 0.00 | 0.00 | 69 | 1008.6 |
| 20260506111830 | 42 | 55 | 0.0 | 1.7 | 0.00 | 0.00 | 0.00 | 69 | 1008.5 |
| 20260506111326 | 42 | 55 | 0.0 | 1.7 | 0.00 | 0.00 | 0.00 | 69 | 1008.5 |
| 20260506110814 | 42 | 55 | 0.0 | 1.7 | 0.00 | 0.00 | 0.00 | 70 | 1008.5 |
| 20260506110303 | 42 | 55 | 0.0 | 0.9 | 0.00 | 0.00 | 0.00 | 70 | 1008.3 |
| 20260506105752 | 42 | 55 | 0.0 | 0.9 | 0.00 | 0.00 | 0.00 | 71 | 1008.3 |
| 20260506105238 | 42 | 55 | 0.0 | 0.0 | 0.00 | 0.00 | 0.00 | 71 | 1008.3 |
| 20260506104727 | 42 | 55 | 0.0 | 0.0 | 0.00 | 0.00 | 0.00 | 70 | 1008.2 |
| 20260506104215 | 42 | 55 | 0.0 | 0.0 | 0.00 | 0.00 | 0.00 | 70 | 1008.2 |
| 20260506103702 | 42 | 55 | 0.9 | 1.7 | 0.00 | 0.00 | 0.00 | 70 | 1008.2 |
| 20260506103150 | 42 | 55 | 0.9 | 2.6 | 0.00 | 0.00 | 0.00 | 70 | 1007.8 |
| 20260506102640 | 42 | 55 | 0.0 | 2.6 | 0.00 | 0.00 | 0.00 | 69 | 1007.8 |
| 20260506102126 | 42 | 55 | 0.9 | 2.6 | 0.00 | 0.00 | 0.00 | 69 | 1007.8 |
| 20260506101615 | 42 | 55 | 0.9 | 2.6 | 0.00 | 0.00 | 0.00 | 69 | 1007.6 |
| 20260506101109 | 43 | 55 | 0.9 | 2.6 | 0.00 | 0.00 | 0.00 | 69 | 1007.6 |
| 20260506100604 | 43 | 55 | 0.9 | 2.6 | 0.00 | 0.00 | 0.00 | 69 | 1007.6 |
| 20260506100050 | 43 | 48 | 0.0 | 1.7 | 0.00 | 0.00 | 0.00 | 69 | 1007.7 |